DW0307 Weather Reports


Display with metric or nautical units.
time (UTC)temp
F
wind
direction
speed
MPH
gust
MPH
rain 1hr
in
rain 24hr
in
rain mn
in
humidity
%
barometer
mb
20181119171318 29 22 8.0 0.0 0.00 0.00 0.00 88 1015.8
20181119170328 29 22 8.0 0.0 0.00 0.00 0.00 88 1015.7
20181119165318 29 28 8.0 0.0 0.00 0.00 0.00 87 1015.4
20181119164333 29 12 8.0 0.0 0.00 0.00 0.00 87 1015.3
20181119163321 29 9 8.0 0.0 0.00 0.00 0.00 87 1015.3
20181119162328 29 16 9.0 0.0 0.00 0.00 0.00 87 1015.2
20181119161318 29 34 8.0 0.0 0.00 0.00 0.00 87 1015.3
20181119160331 29 19 8.0 0.0 0.00 0.00 0.00 87 1015.2
20181119155321 29 26 10.0 0.0 0.00 0.00 0.00 87 1015.3
20181119154331 29 40 10.0 0.0 0.00 0.00 0.00 87 1015.1
20181119153326 29 28 11.0 0.0 0.00 0.00 0.00 87 1015.1
20181119152316 29 42 10.0 0.0 0.00 0.00 0.00 86 1015.0
20181119151327 29 60 11.0 0.0 0.00 0.00 0.00 86 1014.8
20181119150337 29 40 12.0 0.0 0.00 0.00 0.00 86 1014.7
20181119145330 29 36 13.0 0.0 0.00 0.00 0.00 86 1014.7
20181119144322 29 50 13.0 0.0 0.00 0.00 0.00 85 1014.6
20181119143331 29 48 12.0 0.0 0.00 0.00 0.00 85 1014.6
20181119142319 29 15 12.0 0.0 0.00 0.00 0.00 85 1014.6
20181119141334 29 54 13.0 0.0 0.00 0.00 0.00 84 1014.6
20181119140322 29 44 12.0 0.0 0.00 0.00 0.00 84 1014.6
20181119135329 29 48 12.0 0.0 0.00 0.00 0.00 83 1014.5
20181119134325 29 55 11.0 0.0 0.00 0.00 0.00 83 1014.4
20181119133319 29 49 11.0 0.0 0.00 0.00 0.00 83 1014.3
20181119132329 29 44 12.0 0.0 0.00 0.00 0.00 83 1014.2
20181119131318 29 48 10.0 0.0 0.00 0.00 0.00 82 1014.1
20181119130334 30 50 9.0 0.0 0.00 0.00 0.00 82 1013.9
20181119125324 30 40 8.0 0.0 0.00 0.00 0.00 82 1013.8
20181119124333 30 38 10.0 0.0 0.00 0.00 0.00 82 1013.9
20181119123327 30 55 10.0 0.0 0.00 0.00 0.00 81 1013.8
20181119122317 31 70 11.0 0.0 0.00 0.00 0.00 81 1013.8
20181119121329 31 32 11.0 0.0 0.00 0.00 0.00 81 1013.7
20181119120318 30 39 12.0 0.0 0.00 0.00 0.00 82 1013.8
20181119115331 30 36 12.0 0.0 0.00 0.00 0.00 82 1013.8
20181119114322 30 43 13.0 0.0 0.00 0.00 0.00 82 1013.8
20181119113332 30 46 14.0 0.0 0.00 0.00 0.00 82 1013.8
20181119112324 30 61 14.0 0.0 0.00 0.00 0.00 82 1013.8
20181119111317 30 38 13.0 0.0 0.00 0.00 0.00 82 1013.9
20181119110329 30 49 13.0 0.0 0.00 0.00 0.00 82 1013.8
20181119105335 30 45 13.0 0.0 0.00 0.00 0.00 81 1013.9
20181119104326 30 23 12.0 0.0 0.00 0.00 0.00 81 1013.9
20181119103318 30 51 12.0 0.0 0.00 0.00 0.00 80 1013.9
20181119102321 30 38 11.0 0.0 0.00 0.00 0.00 80 1013.9
20181119101331 30 23 11.0 0.0 0.00 0.00 0.00 79 1014.0
20181119100330 30 41 11.0 0.0 0.00 0.00 0.00 79 1014.0
20181119095319 30 38 11.0 0.0 0.00 0.00 0.00 78 1014.0
20181119094332 30 49 10.0 0.0 0.00 0.00 0.00 78 1014.0
20181119093324 30 38 10.0 0.0 0.00 0.00 0.00 78 1014.1
20181119092318 29 53 11.0 0.0 0.00 0.00 0.00 77 1014.1
20181119091328 29 69 11.0 0.0 0.00 0.00 0.00 77 1014.0
20181119090338 30 29 11.0 0.0 0.00 0.00 0.00 77 1014.0
20181119085326 29 43 10.0 0.0 0.00 0.00 0.00 76 1014.1
20181119084321 29 51 12.0 0.0 0.00 0.00 0.00 76 1014.1
20181119083331 29 51 12.0 0.0 0.00 0.00 0.00 75 1014.1
20181119082323 29 29 12.0 0.0 0.00 0.00 0.00 75 1014.0
20181119081317 29 33 12.0 0.0 0.00 0.00 0.00 74 1013.9
20181119080330 29 34 12.0 0.0 0.00 0.00 0.00 74 1013.8
20181119075317 29 36 13.0 0.0 0.00 0.00 0.00 73 1013.7
20181119074329 29 52 12.0 0.0 0.00 0.00 0.00 73 1013.7
20181119073326 29 67 11.0 0.0 0.00 0.00 0.00 73 1013.8
20181119072319 29 53 10.0 0.0 0.00 0.00 0.00 73 1013.7
20181119071329 28 34 9.0 0.0 0.00 0.00 0.00 73 1013.6
20181119070326 28 61 10.0 0.0 0.00 0.00 0.00 73 1013.7
20181119065328 28 43 9.0 0.0 0.00 0.00 0.00 73 1013.6
20181119064321 28 54 8.0 0.0 0.00 0.00 0.00 72 1013.5
20181119063330 28 59 9.0 0.0 0.00 0.00 0.00 72 1013.5
20181119062323 28 54 10.0 0.0 0.00 0.00 0.00 72 1013.4
20181119061332 28 75 8.0 0.0 0.00 0.00 0.00 72 1013.2
20181119060324 28 41 9.0 0.0 0.00 0.00 0.00 71 1013.1
20181119055317 28 67 7.0 0.0 0.00 0.00 0.00 71 1012.9
20181119054332 28 101 7.0 0.0 0.00 0.00 0.00 70 1012.7
20181119053321 28 89 6.0 0.0 0.00 0.00 0.00 69 1012.7
20181119052332 28 67 4.0 0.0 0.00 0.00 0.00 68 1012.7
20181119051330 28 109 4.0 0.0 0.00 0.00 0.00 66 1012.8
20181119050321 29 70 4.0 0.0 0.00 0.00 0.00 64 1012.6
20181119045326 29 93 6.0 0.0 0.00 0.00 0.00 62 1012.7
20181119044316 29 41 8.0 0.0 0.00 0.00 0.00 62 1012.7
20181119043331 29 49 7.0 0.0 0.00 0.00 0.00 63 1012.9
20181119042319 29 57 6.0 0.0 0.00 0.00 0.00 64 1012.8
20181119041331 28 29 6.0 0.0 0.00 0.00 0.00 65 1013.0
20181119040321 28 67 6.0 0.0 0.00 0.00 0.00 66 1013.1
20181119035335 28 57 7.0 0.0 0.00 0.00 0.00 67 1013.2
20181119034325 28 65 5.0 0.0 0.00 0.00 0.00 68 1013.3
20181119033335 28 82 6.0 0.0 0.00 0.00 0.00 70 1013.2
20181119032327 28 66 6.0 0.0 0.00 0.00 0.00 72 1013.2
20181119031320 28 67 7.0 0.0 0.00 0.00 0.00 74 1013.2
20181119030328 28 54 8.0 0.0 0.00 0.00 0.00 74 1013.2
20181119025316 28 56 8.0 0.0 0.00 0.00 0.00 73 1013.4
20181119024331 28 38 6.0 0.0 0.00 0.00 0.00 74 1013.5
20181119023322 28 67 5.0 0.0 0.00 0.00 0.00 75 1013.7
20181119022330 28 55 6.0 0.0 0.00 0.00 0.00 76 1013.7
20181119021319 28 63 6.0 0.0 0.00 0.00 0.00 76 1013.8
20181119020333 28 42 7.0 0.0 0.00 0.00 0.00 76 1013.8
20181119015325 28 44 7.0 0.0 0.00 0.00 0.00 76 1013.6
20181119014316 28 50 7.0 0.0 0.00 0.00 0.00 76 1013.7
20181119013328 28 66 5.0 0.0 0.00 0.00 0.00 78 1013.9
20181119012317 28 94 3.0 0.0 0.00 0.00 0.00 78 1014.0
20181119011327 28 120 5.0 0.0 0.00 0.00 0.00 79 1014.1
20181119010321 28 60 7.0 0.0 0.00 0.00 0.00 79 1014.1
20181119005318 28 49 7.0 0.0 0.00 0.00 0.00 79 1014.1
20181119004324 28 56 6.0 0.0 0.00 0.00 0.00 79 1014.2
20181119003334 28 40 6.0 0.0 0.00 0.00 0.00 79 1014.3
20181119002323 28 42 5.0 0.0 0.00 0.00 0.00 78 1014.4
20181119001316 28 48 8.0 0.0 0.00 0.00 0.00 78 1014.4
20181119000328 28 44 8.0 0.0 0.00 0.00 0.00 79 1014.4
20181118235316 28 40 7.0 0.0 0.00 0.00 0.00 80 1014.5
20181118234327 28 49 6.0 0.0 0.00 0.00 0.00 81 1014.6
20181118233321 28 59 6.0 0.0 0.00 0.00 0.00 82 1014.6
20181118232327 28 57 6.0 0.0 0.00 0.00 0.00 82 1014.7
20181118231316 28 67 5.0 0.0 0.00 0.00 0.00 83 1014.7
20181118230332 28 65 6.0 0.0 0.00 0.00 0.00 83 1014.7
20181118225320 28 72 4.0 0.0 0.00 0.00 0.00 83 1014.6
20181118224331 28 82 4.0 0.0 0.00 0.00 0.00 83 1014.6
20181118223321 28 87 4.0 0.0 0.00 0.00 0.00 83 1014.6
20181118222331 29 71 3.0 0.0 0.00 0.00 0.00 83 1014.8
20181118221320 29 96 4.0 0.0 0.00 0.00 0.00 83 1014.9
20181118220332 29 76 5.0 0.0 0.00 0.00 0.00 83 1014.9
20181118215322 29 76 5.0 0.0 0.00 0.00 0.00 83 1015.1
20181118214333 29 73 5.0 0.0 0.00 0.00 0.00 82 1015.3
20181118213321 29 67 6.0 0.0 0.00 0.00 0.00 82 1015.2
20181118212333 29 30 6.0 0.0 0.00 0.00 0.00 82 1015.3
20181118211322 29 26 6.0 0.0 0.00 0.00 0.00 81 1015.3
20181118210332 29 21 7.0 0.0 0.00 0.00 0.00 81 1015.5
20181118205325 29 51 8.0 0.0 0.00 0.00 0.00 81 1015.7
20181118204329 29 40 9.0 0.0 0.00 0.00 0.00 81 1015.7
20181118203323 30 40 8.0 0.0 0.00 0.00 0.00 81 1015.7
20181118202331 30 39 7.0 0.0 0.00 0.00 0.00 82 1015.6
20181118201322 30 47 7.0 0.0 0.00 0.00 0.00 83 1015.7
20181118200316 30 15 7.0 0.0 0.00 0.00 0.00 84 1015.6
20181118195324 30 65 7.0 0.0 0.00 0.00 0.00 85 1016.0
20181118194314 30 74 5.0 0.0 0.00 0.00 0.00 86 1016.1
20181118193329 30 59 6.0 0.0 0.00 0.00 0.00 85 1016.2
20181118192319 31 48 5.0 0.0 0.00 0.00 0.00 84 1016.2
20181118191330 30 69 4.0 0.0 0.00 0.00 0.00 84 1016.5
20181118190321 30 84 5.0 0.0 0.00 0.00 0.00 85 1016.6
20181118185329 30 76 6.0 0.0 0.00 0.00 0.00 86 1016.9
20181118184318 31 55 6.0 0.0 0.00 0.00 0.00 87 1016.8
20181118183330 31 67 4.0 0.0 0.00 0.00 0.00 87 1016.8
20181118182321 31 78 6.0 0.0 0.00 0.00 0.00 88 1016.9
20181118181318 31 31 6.0 0.0 0.00 0.00 0.00 88 1016.9
20181118180327 31 76 9.0 0.0 0.00 0.00 0.00 88 1016.9
20181118175317 31 55 10.0 0.0 0.00 0.00 0.00 88 1017.1
20181118174326 31 47 11.0 0.0 0.00 0.00 0.00 88 1017.1
20181118173320 31 17 10.0 0.0 0.00 0.00 0.00 88 1017.2
20181118172329 31 55 9.0 0.0 0.00 0.00 0.00 88 1017.3